Location: Ammerl�gen
(47.2167°N, 9.6000°E)
Time: 09:14:36
(UTC+00:00)

Cosmos-2242 - Pass Details

Date: 21 April 2021
Orbit: 589 x 618 km, 82.5° (Epoch: 06 May)

Event Time Altitude Azimuth Distance (km) Brightness Sun altitude
Exits shadow 19:24:15 15° 134° (SE) 1,676 4.6 -10.8°
Maximum altitude 19:26:51 24° 88° (E) 1,250 4.2 -11.2°
Drops below altitude 10° 19:30:21 10° 34° (NE) 1,953 5.6 -11.7°
Sets 19:32:51 0° 21° (NNE) 2,856 6.6 -12.1°
